Location: Buch
(50.1863°N, 11.0141°E)
Time: 05:56:51
(UTC+00:00)

Cosmos 2263 Rocket - Pass Details

Date: 18 January 2020
Orbit: 823 x 849 km, 71.0° (Epoch: 23 February)

Event Time Altitude Azimuth Distance (km) Brightness Sun altitude
Exits shadow 04:39:02 15° 345° (NNW) 2,147 4.1 -23.2°
Maximum altitude 04:43:23 39° 50° (NE) 1,239 3.4 -22.5°
Drops below altitude 10° 04:48:39 10° 119° (ESE) 2,461 5.6 -21.6°
Sets 04:51:16 0° 127° (SE) 3,396 6.4 -21.2°
